DEVIL11 PMDY-PHNL

Flight info

Callsign DEVIL11
Flight time N/A
Altitude 33000
Route 27N175W 25N170W DOGIF CANON BOOKE8
Aircraft F16/M-DILRTUV/C

Departure

Time 2026-04-25 15:26
Airport Henderson Field (PMDY)

Arrival

Time N/A
Airport Daniel K. Inouye International Airport (PHNL)
Time Latitude Longitude Altitude Speed Heading
2026-04-25 15:20 28.20992 -177.37953 8 ft 0 kts 65°
2026-04-25 15:21 28.21004 -177.37911 8 ft 7 kts 105°
2026-04-25 15:22 28.20951 -177.37876 8 ft 11 kts 156°
2026-04-25 15:22 28.20897 -177.37900 8 ft 12 kts 245°
2026-04-25 15:22 28.20855 -177.38002 8 ft 17 kts 244°
2026-04-25 15:22 28.20802 -177.38132 8 ft 18 kts 245°
2026-04-25 15:23 28.20782 -177.38182 16 ft 4 kts 270°
2026-04-25 15:23 28.20756 -177.38248 16 ft 18 kts 234°
2026-04-25 15:23 28.20670 -177.38294 16 ft 15 kts 158°
2026-04-25 15:23 28.20579 -177.38251 16 ft 14 kts 159°
2026-04-25 15:24 28.20496 -177.38216 16 ft 16 kts 159°
2026-04-25 15:24 28.20379 -177.38162 16 ft 18 kts 158°
2026-04-25 15:24 28.20267 -177.38111 15 ft 13 kts 160°
2026-04-25 15:24 28.20240 -177.38100 13 ft 13 kts 158°
2026-04-25 15:25 28.20115 -177.38253 12 ft 34 kts 249°
2026-04-25 15:25 28.20014 -177.38541 14 ft 44 kts 249°
2026-04-25 15:25 28.19907 -177.38880 16 ft 48 kts 250°
2026-04-25 15:25 28.19831 -177.39093 15 ft 2 kts 184°
2026-04-25 15:26 28.19876 -177.38938 16 ft 77 kts 70°
2026-04-25 15:26 28.20284 -177.37750 259 ft 223 kts 70°
2026-04-25 15:26 28.20882 -177.36059 1155 ft 251 kts 70°
2026-04-25 15:26 28.21641 -177.33854 1944 ft 303 kts 68°
2026-04-25 15:27 28.22456 -177.31432 2691 ft 362 kts 82°
2026-04-25 15:27 28.22359 -177.28648 3361 ft 363 kts 108°
2026-04-25 15:27 28.19370 -177.24124 4842 ft 367 kts 138°
2026-04-25 15:28 28.17439 -177.22130 5604 ft 383 kts 138°
2026-04-25 15:28 28.15551 -177.20072 6356 ft 379 kts 136°
2026-04-25 15:28 28.13714 -177.17909 7091 ft 384 kts 134°
2026-04-25 15:28 28.11919 -177.15607 7809 ft 393 kts 131°
2026-04-25 15:29 28.10188 -177.13193 8541 ft 398 kts 129°
2026-04-25 15:29 28.08499 -177.10670 9290 ft 405 kts 128°
2026-04-25 15:29 28.06874 -177.08097 10049 ft 411 kts 126°
2026-04-25 15:29 28.05248 -177.05401 10749 ft 417 kts 125°
2026-04-25 15:30 28.03650 -177.02650 11450 ft 418 kts 124°
2026-04-25 15:30 28.02075 -176.99863 12176 ft 423 kts 123°
2026-04-25 15:30 28.00507 -176.97019 12921 ft 428 kts 122°
2026-04-25 15:30 27.98946 -176.94132 13675 ft 432 kts 121°
2026-04-25 15:31 27.97389 -176.91205 14398 ft 436 kts 121°
2026-04-25 15:31 27.95833 -176.88238 15090 ft 442 kts 120°
2026-04-25 15:31 27.94288 -176.85258 15790 ft 449 kts 120°
2026-04-25 15:31 27.92713 -176.82192 16506 ft 452 kts 120°
2026-04-25 15:32 27.91133 -176.79099 17254 ft 459 kts 120°
2026-04-25 15:32 27.89534 -176.75953 18018 ft 465 kts 120°
2026-04-25 15:32 27.87921 -176.72767 18751 ft 467 kts 120°
2026-04-25 15:33 27.84666 -176.66316 20125 ft 475 kts 119°
2026-04-25 15:33 27.83021 -176.63051 20840 ft 482 kts 119°
2026-04-25 15:33 27.81379 -176.59791 21550 ft 485 kts 119°
2026-04-25 15:33 27.79703 -176.56461 22301 ft 490 kts 119°
2026-04-25 15:34 27.78015 -176.53097 23070 ft 495 kts 119°
2026-04-25 15:34 27.76310 -176.49699 23840 ft 500 kts 119°
2026-04-25 15:34 27.74586 -176.46270 24510 ft 505 kts 119°
2026-04-25 15:34 27.73998 -176.45100 24737 ft 507 kts 119°
2026-04-25 15:35 27.69312 -176.35775 26588 ft 520 kts 119°
2026-04-25 15:35 27.67520 -176.32212 27333 ft 526 kts 119°
2026-04-25 15:35 27.65729 -176.28656 28076 ft 531 kts 119°
2026-04-25 15:36 27.62035 -176.21330 29653 ft 542 kts 119°
2026-04-25 15:36 27.60150 -176.17596 30438 ft 551 kts 119°
2026-04-25 15:36 27.58242 -176.13820 30860 ft 558 kts 119°
2026-04-25 15:37 27.56318 -176.10009 31042 ft 560 kts 119°
2026-04-25 15:37 27.54392 -176.06200 31116 ft 559 kts 119°
2026-04-25 15:37 27.50538 -175.98597 31176 ft 552 kts 119°
2026-04-25 15:38 27.48736 -175.95049 31181 ft 509 kts 119°
2026-04-25 15:38 27.47030 -175.91694 31192 ft 483 kts 118°
2026-04-25 15:38 27.43703 -175.85142 31202 ft 484 kts 119°
2026-04-25 15:39 27.40355 -175.78558 31199 ft 485 kts 119°
2026-04-25 15:39 27.37006 -175.71972 31200 ft 484 kts 119°
2026-04-25 15:40 27.34787 -175.67619 31198 ft 484 kts 119°
2026-04-25 15:40 27.30310 -175.58860 31197 ft 486 kts 119°
2026-04-25 15:41 27.26942 -175.52276 31198 ft 485 kts 119°
2026-04-25 15:41 27.23575 -175.45707 31198 ft 485 kts 119°
2026-04-25 15:42 27.20201 -175.39136 31201 ft 486 kts 119°
2026-04-25 15:42 27.16848 -175.32616 31200 ft 485 kts 119°
2026-04-25 15:43 27.13471 -175.26057 31196 ft 485 kts 119°
2026-04-25 15:43 27.10083 -175.19499 31195 ft 487 kts 119°
2026-04-25 15:44 27.06688 -175.12929 31195 ft 486 kts 119°
2026-04-25 15:44 27.03304 -175.06377 31195 ft 485 kts 119°
2026-04-25 15:45 27.00156 -174.99740 31193 ft 487 kts 114°
2026-04-25 15:45 26.98290 -174.95125 31192 ft 485 kts 112°
2026-04-25 15:46 26.94720 -174.85873 31193 ft 485 kts 112°
2026-04-25 15:46 26.92080 -174.78926 31195 ft 485 kts 112°
2026-04-25 15:47 26.89454 -174.72011 31195 ft 486 kts 112°
2026-04-25 15:47 26.86812 -174.65050 31196 ft 486 kts 112°
2026-04-25 15:48 26.84155 -174.58059 31193 ft 489 kts 112°
2026-04-25 15:48 26.81501 -174.51075 31192 ft 486 kts 112°
2026-04-25 15:49 26.80210 -174.47630 31153 ft 485 kts 101°
2026-04-25 15:49 26.79083 -174.44060 31144 ft 488 kts 111°
2026-04-25 15:49 26.76398 -174.37111 31179 ft 488 kts 113°
2026-04-25 15:50 26.73662 -174.30176 31186 ft 486 kts 113°
2026-04-25 15:50 26.70967 -174.23259 31189 ft 485 kts 112°
2026-04-25 15:51 26.69184 -174.18667 31190 ft 486 kts 112°
2026-04-25 15:51 26.65621 -174.09450 31189 ft 485 kts 112°
2026-04-25 15:52 26.62946 -174.02534 31192 ft 485 kts 113°
2026-04-25 15:52 26.60272 -173.95617 31101 ft 483 kts 113°
2026-04-25 15:53 26.57616 -173.88766 31168 ft 483 kts 112°
2026-04-25 15:53 26.55653 -173.81652 31164 ft 510 kts 89°
2026-04-25 15:54 26.56142 -173.77525 31154 ft 549 kts 71°
2026-04-25 15:54 26.57745 -173.73674 31153 ft 546 kts 54°
2026-04-25 15:54 26.60291 -173.70547 31162 ft 546 kts 37°
2026-04-25 15:54 26.63556 -173.68407 31177 ft 546 kts 19°
2026-04-25 15:55 26.67253 -173.67253 31214 ft 575 kts 11°
2026-04-25 15:55 26.71480 -173.66403 31228 ft 660 kts
2026-04-25 15:55 26.76219 -173.65611 31218 ft 728 kts
2026-04-25 15:55 26.81245 -173.64832 31201 ft 729 kts
2026-04-25 15:56 26.91305 -173.63341 31196 ft 728 kts
2026-04-25 15:56 27.01365 -173.61872 31199 ft 730 kts
2026-04-25 15:57 27.11402 -173.60405 31190 ft 716 kts
2026-04-25 15:57 27.16044 -173.59723 31195 ft 664 kts
2026-04-25 15:57 27.20634 -173.59046 31198 ft 666 kts
2026-04-25 15:58 27.29842 -173.57689 31201 ft 670 kts
2026-04-25 15:58 27.39099 -173.56337 31199 ft 671 kts
2026-04-25 15:59 27.48374 -173.54944 31182 ft 676 kts 12°
2026-04-25 15:59 27.52688 -173.53326 31090 ft 624 kts 26°
2026-04-25 15:59 27.56084 -173.50778 31060 ft 570 kts 43°
2026-04-25 16:00 27.58520 -173.47479 31065 ft 531 kts 60°
2026-04-25 16:00 27.59097 -173.46250 31072 ft 520 kts 65°
2026-04-25 16:00 27.60038 -173.39924 31144 ft 487 kts 98°
2026-04-25 16:00 27.59201 -173.36513 31176 ft 489 kts 116°
2026-04-25 16:01 27.57362 -173.33308 31204 ft 489 kts 129°
2026-04-25 16:01 27.55134 -173.30388 31217 ft 491 kts 131°
2026-04-25 16:01 27.51260 -173.25685 31211 ft 492 kts 133°
2026-04-25 16:02 27.45802 -173.19222 31203 ft 491 kts 133°
2026-04-25 16:02 27.41081 -173.13649 31201 ft 492 kts 133°
2026-04-25 16:03 27.37166 -173.09017 31203 ft 490 kts 133°
2026-04-25 16:03 27.31659 -173.02484 31201 ft 493 kts 133°
2026-04-25 16:04 27.26995 -172.96930 31195 ft 490 kts 133°
2026-04-25 16:04 27.22305 -172.91326 31200 ft 495 kts 133°
2026-04-25 16:05 27.18412 -172.86663 31197 ft 490 kts 133°
2026-04-25 16:06 27.11411 -172.78245 31195 ft 493 kts 133°
2026-04-25 16:06 27.06755 -172.72623 31198 ft 490 kts 133°
2026-04-25 16:07 27.02130 -172.67019 31198 ft 495 kts 133°
2026-04-25 16:07 26.97483 -172.61372 31196 ft 491 kts 133°
2026-04-25 16:08 26.92882 -172.55764 31199 ft 489 kts 132°
2026-04-25 16:08 26.88275 -172.50127 31195 ft 489 kts 132°
2026-04-25 16:09 26.83699 -172.44508 31195 ft 490 kts 132°
2026-04-25 16:09 26.79146 -172.38899 31198 ft 490 kts 132°
2026-04-25 16:10 26.75315 -172.34162 31194 ft 489 kts 132°
2026-04-25 16:10 26.70010 -172.27581 31191 ft 493 kts 132°
2026-04-25 16:11 26.65445 -172.21895 31188 ft 490 kts 131°
2026-04-25 16:11 26.60956 -172.16293 31190 ft 487 kts 131°
2026-04-25 16:12 26.56440 -172.10634 31190 ft 488 kts 131°
2026-04-25 16:12 26.51947 -172.04977 31188 ft 486 kts 131°
2026-04-25 16:13 26.47461 -171.99311 31187 ft 487 kts 131°
2026-04-25 16:13 26.42980 -171.93629 31188 ft 487 kts 131°
2026-04-25 16:14 26.38551 -171.87991 31185 ft 488 kts 130°
2026-04-25 16:14 26.34085 -171.82287 31185 ft 489 kts 130°
2026-04-25 16:15 26.29651 -171.76604 31185 ft 484 kts 130°
2026-04-25 16:15 26.25240 -171.70928 31184 ft 485 kts 130°
2026-04-25 16:16 26.20861 -171.65271 31185 ft 486 kts 130°
2026-04-25 16:16 26.16467 -171.59565 31186 ft 485 kts 130°
2026-04-25 16:17 26.12083 -171.53852 31182 ft 485 kts 130°
2026-04-25 16:17 26.07704 -171.48125 31182 ft 486 kts 130°
2026-04-25 16:18 26.03344 -171.42395 31184 ft 485 kts 129°
2026-04-25 16:18 25.99023 -171.36697 31182 ft 485 kts 129°
2026-04-25 16:19 25.94696 -171.30974 31182 ft 484 kts 129°
2026-04-25 16:19 25.90382 -171.25232 31183 ft 484 kts 129°
2026-04-25 16:20 25.83958 -171.16643 31178 ft 484 kts 128°
2026-04-25 16:21 25.77526 -171.07985 31179 ft 484 kts 129°
2026-04-25 16:21 25.73260 -171.02212 31173 ft 484 kts 128°
2026-04-25 16:22 25.69001 -170.96425 31174 ft 485 kts 128°
2026-04-25 16:22 25.64785 -170.90671 31179 ft 481 kts 128°
2026-04-25 16:23 25.60576 -170.84897 31177 ft 483 kts 128°
2026-04-25 16:23 25.56372 -170.79108 31173 ft 482 kts 128°
2026-04-25 16:24 25.52183 -170.73316 31171 ft 482 kts 128°
2026-04-25 16:24 25.48035 -170.67545 31170 ft 482 kts 127°
2026-04-25 16:25 25.43875 -170.61728 31170 ft 482 kts 127°
2026-04-25 16:25 25.39722 -170.55901 31170 ft 482 kts 127°
2026-04-25 16:26 25.35579 -170.50061 31172 ft 483 kts 127°
2026-04-25 16:26 25.31458 -170.44216 31168 ft 480 kts 127°
2026-04-25 16:27 25.27394 -170.38428 31169 ft 481 kts 126°
2026-04-25 16:27 25.23312 -170.32586 31168 ft 480 kts 126°
2026-04-25 16:28 25.19245 -170.26739 31165 ft 480 kts 126°
2026-04-25 16:28 25.15196 -170.20875 31165 ft 480 kts 126°
2026-04-25 16:29 25.11329 -170.14926 31168 ft 481 kts 122°
2026-04-25 16:29 25.07805 -170.08650 31165 ft 480 kts 118°
2026-04-25 16:30 25.04661 -170.02161 31164 ft 480 kts 115°
2026-04-25 16:30 25.01816 -169.95497 31166 ft 480 kts 113°
2026-04-25 16:31 24.99216 -169.88784 31166 ft 478 kts 110°
2026-04-25 16:31 24.96781 -169.81956 31165 ft 478 kts 109°
2026-04-25 16:32 24.94483 -169.75080 31165 ft 480 kts 108°
2026-04-25 16:32 24.92282 -169.68147 31169 ft 479 kts 108°
2026-04-25 16:33 24.90161 -169.61197 31163 ft 479 kts 107°
2026-04-25 16:33 24.88105 -169.54286 31162 ft 478 kts 106°
2026-04-25 16:34 24.86076 -169.47299 31160 ft 480 kts 106°
2026-04-25 16:34 24.84069 -169.40304 31168 ft 480 kts 105°
2026-04-25 16:35 24.82087 -169.33316 31165 ft 479 kts 104°
2026-04-25 16:35 24.80145 -169.26411 31165 ft 481 kts 105°
2026-04-25 16:36 24.78180 -169.19396 31166 ft 480 kts 105°
2026-04-25 16:36 24.76223 -169.12379 31158 ft 480 kts 105°
2026-04-25 16:37 24.74383 -169.05354 30970 ft 476 kts 102°
2026-04-25 16:37 24.72603 -168.98337 31111 ft 480 kts 104°
2026-04-25 16:38 24.70465 -168.91368 31150 ft 482 kts 108°
2026-04-25 16:38 24.68354 -168.84388 31158 ft 480 kts 105°
2026-04-25 16:39 24.66375 -168.77367 31161 ft 481 kts 106°
2026-04-25 16:39 24.64436 -168.70393 31163 ft 481 kts 105°
2026-04-25 16:40 24.62478 -168.63354 31159 ft 483 kts 105°
2026-04-25 16:40 24.60514 -168.56301 31161 ft 482 kts 104°
2026-04-25 16:41 24.58549 -168.49258 31163 ft 483 kts 104°
2026-04-25 16:41 24.55610 -168.38782 31158 ft 478 kts 105°
2026-04-25 16:42 24.53716 -168.32042 31159 ft 480 kts 105°
2026-04-25 16:42 24.51752 -168.25080 31158 ft 479 kts 105°
2026-04-25 16:43 24.49790 -168.18136 31156 ft 479 kts 105°
2026-04-25 16:43 24.47812 -168.11143 31157 ft 480 kts 105°
2026-04-25 16:44 24.45830 -168.04159 31160 ft 480 kts 105°
2026-04-25 16:44 24.43895 -167.97341 31159 ft 480 kts 105°
2026-04-25 16:45 24.41917 -167.90390 31160 ft 481 kts 106°
2026-04-25 16:45 24.39917 -167.83388 31160 ft 480 kts 105°
2026-04-25 16:46 24.37921 -167.76392 31156 ft 481 kts 105°
2026-04-25 16:46 24.36255 -167.70579 31156 ft 480 kts 105°
2026-04-25 16:47 24.33923 -167.62460 31156 ft 481 kts 105°
2026-04-25 16:47 24.31913 -167.55463 31160 ft 483 kts 105°
2026-04-25 16:48 24.29889 -167.48457 31159 ft 481 kts 105°
2026-04-25 16:48 24.27868 -167.41456 31159 ft 482 kts 105°
2026-04-25 16:49 24.25858 -167.34498 31160 ft 482 kts 105°
2026-04-25 16:49 24.23830 -167.27504 31161 ft 482 kts 105°
2026-04-25 16:50 24.21800 -167.20504 31157 ft 482 kts 105°
2026-04-25 16:50 24.19763 -167.13501 31157 ft 482 kts 105°
2026-04-25 16:51 24.17734 -167.06552 31158 ft 482 kts 105°
2026-04-25 16:51 24.16024 -167.00696 31156 ft 482 kts 106°
2026-04-25 16:52 24.13645 -166.92569 31156 ft 483 kts 105°
2026-04-25 16:52 24.11603 -166.85612 31159 ft 479 kts 105°
2026-04-25 16:53 24.08551 -166.75216 31157 ft 480 kts 105°
2026-04-25 16:54 24.06501 -166.68260 31153 ft 480 kts 106°
2026-04-25 16:54 24.04451 -166.61303 31154 ft 480 kts 106°
2026-04-25 16:55 24.02396 -166.54349 31157 ft 480 kts 105°
2026-04-25 16:55 24.00346 -166.47440 31158 ft 481 kts 107°
2026-04-25 16:56 23.98280 -166.40470 31158 ft 482 kts 106°
2026-04-25 16:56 23.96210 -166.33513 31157 ft 481 kts 105°
2026-04-25 16:57 23.94135 -166.26550 31155 ft 481 kts 105°
2026-04-25 16:57 23.92076 -166.19645 31156 ft 481 kts 106°
2026-04-25 16:58 23.89993 -166.12686 31162 ft 482 kts 105°
2026-04-25 16:58 23.87907 -166.05725 31159 ft 482 kts 105°
2026-04-25 16:59 23.85823 -165.98766 31154 ft 482 kts 105°
2026-04-25 16:59 23.83746 -165.91857 31156 ft 482 kts 105°
2026-04-25 17:00 23.81652 -165.84899 31156 ft 482 kts 105°
2026-04-25 17:00 23.79556 -165.77947 31161 ft 482 kts 106°
2026-04-25 17:01 23.77485 -165.71104 31161 ft 483 kts 105°
2026-04-25 17:01 23.75393 -165.64193 31159 ft 482 kts 106°
2026-04-25 17:02 23.73289 -165.57244 31157 ft 482 kts 106°
2026-04-25 17:02 23.71175 -165.50292 31157 ft 483 kts 106°
2026-04-25 17:03 23.69064 -165.43343 31153 ft 482 kts 106°
2026-04-25 17:03 23.66969 -165.36474 31158 ft 479 kts 106°
2026-04-25 17:04 23.64857 -165.29566 31154 ft 480 kts 106°
2026-04-25 17:04 23.62747 -165.22664 31152 ft 480 kts 106°
2026-04-25 17:05 23.60629 -165.15753 31150 ft 480 kts 106°
2026-04-25 17:05 23.57462 -165.05446 31151 ft 481 kts 106°
2026-04-25 17:06 23.55339 -164.98547 31159 ft 480 kts 106°
2026-04-25 17:06 23.53495 -164.92410 31144 ft 478 kts 97°
2026-04-25 17:07 23.53388 -164.88830 31135 ft 472 kts 77°
2026-04-25 17:07 23.54411 -164.85479 31142 ft 466 kts 57°
2026-04-25 17:07 23.56431 -164.82758 31143 ft 463 kts 37°
2026-04-25 17:07 23.59153 -164.81015 31152 ft 462 kts 19°
2026-04-25 17:08 23.65412 -164.79438 31177 ft 463 kts 14°
2026-04-25 17:08 23.68377 -164.78098 31149 ft 464 kts 34°
2026-04-25 17:08 23.70724 -164.75702 31148 ft 466 kts 54°
2026-04-25 17:09 23.72169 -164.72537 31149 ft 471 kts 74°
2026-04-25 17:09 23.72530 -164.68976 31157 ft 478 kts 94°
2026-04-25 17:09 23.71753 -164.65445 31159 ft 484 kts 113°
2026-04-25 17:09 23.69949 -164.62398 31157 ft 490 kts 133°
2026-04-25 17:10 23.67260 -164.60102 31158 ft 496 kts 152°
2026-04-25 17:10 23.64000 -164.58868 31161 ft 500 kts 172°
2026-04-25 17:10 23.60530 -164.58744 31173 ft 501 kts 183°
2026-04-25 17:10 23.57060 -164.59123 31180 ft 501 kts 187°
2026-04-25 17:11 23.50159 -164.60236 31167 ft 502 kts 188°
2026-04-25 17:11 23.43314 -164.60379 31134 ft 498 kts 161°
2026-04-25 17:12 23.40198 -164.58817 31134 ft 492 kts 141°
2026-04-25 17:12 23.37751 -164.56262 31139 ft 487 kts 122°
2026-04-25 17:12 23.36221 -164.52961 31153 ft 514 kts 104°
2026-04-25 17:12 23.35272 -164.48826 31181 ft 614 kts 101°
2026-04-25 17:13 23.34296 -164.44002 31169 ft 671 kts 101°
2026-04-25 17:13 23.33611 -164.40718 31158 ft 672 kts 101°
2026-04-25 17:13 23.31072 -164.29432 31149 ft 678 kts 103°
2026-04-25 17:14 23.28647 -164.19572 31154 ft 681 kts 104°
2026-04-25 17:14 23.26047 -164.09663 31149 ft 682 kts 104°
2026-04-25 17:15 23.23325 -163.99780 31163 ft 682 kts 105°
2026-04-25 17:15 23.20525 -163.89978 31156 ft 682 kts 105°
2026-04-25 17:16 23.17663 -163.80220 31155 ft 683 kts 106°
2026-04-25 17:16 23.14724 -163.70418 31149 ft 682 kts 106°
2026-04-25 17:17 23.11737 -163.60624 31149 ft 682 kts 107°
2026-04-25 17:17 23.08717 -163.50856 31147 ft 683 kts 107°
2026-04-25 17:18 23.05669 -163.41096 31149 ft 683 kts 107°
2026-04-25 17:18 23.02615 -163.31408 31149 ft 682 kts 107°
2026-04-25 17:19 22.99523 -163.21665 31148 ft 683 kts 107°
2026-04-25 17:19 22.96414 -163.11931 31144 ft 682 kts 107°
2026-04-25 17:20 22.93314 -163.02275 31144 ft 683 kts 107°
2026-04-25 17:20 22.90179 -162.92552 31149 ft 683 kts 107°
2026-04-25 17:21 22.87034 -162.82834 31144 ft 683 kts 107°
2026-04-25 17:21 22.83878 -162.73120 31143 ft 683 kts 107°
2026-04-25 17:22 22.81254 -162.65046 31138 ft 683 kts 107°